KB2AHZ Weather Reports


time (UTC)temp
C
wind
direction
speed
KPH
gust
KPH
rain 1hr
cm
rain 24hr
cm
rain mn
cm
humidity
%
barometer
mb
20260510162152 27 34 0.0 4.8 0.00 0.00 0.00 39 1015.8
20260510161647 26 143 8.0 12.9 0.00 0.00 0.00 39 1015.8
20260510161144 26 330 3.2 9.7 0.00 0.00 0.00 40 1015.7
20260510160641 27 60 6.4 12.9 0.00 0.00 0.00 40 1015.8
20260510160136 27 34 3.2 6.4 0.00 0.00 0.00 39 1015.7
20260510155632 27 152 6.4 8.0 0.00 0.00 0.00 39 1015.7
20260510155128 27 73 3.2 8.0 0.00 0.00 0.00 38 1016.0
20260510154624 26 355 3.2 8.0 0.00 0.00 0.00 42 1015.9
20260510154120 26 66 0.0 6.4 0.00 0.00 0.00 42 1015.7
20260510153615 26 117 9.7 12.9 0.00 0.00 0.00 43 1015.8
20260510153112 26 146 3.2 9.7 0.00 0.00 0.00 42 1015.9
20260510152609 27 350 0.0 8.0 0.00 0.00 0.00 43 1015.7
20260510152105 26 235 4.8 9.7 0.00 0.00 0.00 44 1015.9
20260510151602 26 218 8.0 12.9 0.00 0.00 0.00 44 1015.8
20260510151100 26 317 4.8 8.0 0.00 0.00 0.00 46 1016.0
20260510150559 25 150 4.8 11.3 0.00 0.00 0.00 45 1016.0
20260510150055 26 32 4.8 8.0 0.00 0.00 0.00 48 1016.0
20260510145552 25 135 3.2 12.9 0.00 0.00 0.00 45 1015.8
20260510145049 25 35 4.8 14.5 0.00 0.00 0.00 46 1016.0
20260510144545 25 73 3.2 9.7 0.00 0.00 0.00 49 1015.9
20260510144041 25 313 1.6 11.3 0.00 0.00 0.00 50 1016.0
20260510143537 25 166 6.4 11.3 0.00 0.00 0.00 48 1016.1
20260510143034 25 149 3.2 8.0 0.00 0.00 0.00 51 1016.2
20260510142530 25 145 4.8 11.3 0.00 0.00 0.00 50 1015.9
20260510142027 25 130 3.2 8.0 0.00 0.00 0.00 53 1015.9
20260510141523 24 46 4.8 9.7 0.00 0.00 0.00 58 1015.9
20260510141021 24 195 0.0 6.4 0.00 0.00 0.00 54 1015.8
20260510140518 25 137 0.0 6.4 0.00 0.00 0.00 54 1015.6
20260510140017 25 200 0.0 4.8 0.00 0.00 0.00 59 1015.6
20260510135513 25 149 0.0 4.8 0.00 0.00 0.00 59 1015.8
20260510135010 23 153 1.6 12.9 0.00 0.00 0.00 59 1015.5
20260510134507 23 238 8.0 8.0 0.00 0.00 0.00 62 1015.8
20260510134004 23 175 3.2 6.4 0.00 0.00 0.00 63 1015.8
20260510133459 23 203 0.0 4.8 0.00 0.00 0.00 68 1015.8
20260510132955 23 337 0.0 4.8 0.00 0.00 0.00 69 1016.0
20260510132453 22 196 0.0 6.4 0.00 0.00 0.00 67 1016.0
20260510131949 22 114 0.0 8.0 0.00 0.00 0.00 67 1016.1
20260510131448 22 165 6.4 6.4 0.00 0.00 0.00 70 1015.9
20260510130944 21 275 0.0 8.0 0.00 0.00 0.00 76 1015.8
20260510130441 21 171 3.2 8.0 0.00 0.00 0.00 74 1015.8
20260510125938 21 160 4.8 4.8 0.00 0.00 0.00 76 1015.9
20260510125434 20 281 3.2 4.8 0.00 0.00 0.00 80 1015.6
20260510124931 20 212 3.2 11.3 0.00 0.00 0.00 78 1015.8
20260510124427 20 282 0.0 4.8 0.00 0.00 0.00 82 1015.6
20260510123924 20 223 3.2 6.4 0.00 0.00 0.00 81 1015.6
20260510123420 20 208 0.0 4.8 0.00 0.00 0.00 82 1015.5
20260510122916 19 150 3.2 8.0 0.00 0.00 0.00 87 1015.6
20260510122411 18 95 1.6 6.4 0.00 0.00 0.00 89 1015.5
20260510121908 18 177 0.0 4.8 0.00 0.00 0.00 91 1015.5
20260510121405 17 235 1.6 6.4 0.00 0.00 0.00 92 1015.3
20260510120903 17 246 0.0 4.8 0.00 0.00 0.00 92 1015.2
20260510120400 17 239 0.0 3.2 0.00 0.00 0.00 92 1015.2
20260510115855 17 203 1.6 4.8 0.00 0.00 0.00 93 1015.2
20260510115352 16 171 0.0 3.2 0.00 0.00 0.00 96 1015.3
20260510114848 16 241 1.6 3.2 0.00 0.00 0.00 97 1015.1
20260510114346 15 201 1.6 4.8 0.00 0.00 0.00 98 1015.4
20260510113846 15 232 0.0 4.8 0.00 0.00 0.00 98 1015.0
20260510113342 15 243 0.0 4.8 0.00 0.00 0.00 99 1015.2
20260510112839 15 217 0.0 3.2 0.00 0.00 0.00 99 1014.9
20260510112336 15 174 1.6 3.2 0.00 0.00 0.00 99 1014.7
20260510111832 15 151 1.6 3.2 0.00 0.00 0.00 99 1014.6
20260510111329 15 205 0.0 3.2 0.00 0.00 0.00 99 1014.6
20260510110828 15 216 3.2 6.4 0.00 0.00 0.00 99 1014.5
20260510110326 15 168 4.8 6.4 0.00 0.00 0.00 99 1014.3
20260510105822 15 196 4.8 12.9 0.00 0.00 0.00 99 1014.2
20260510105322 15 183 3.2 8.0 0.00 0.00 0.00 99 1014.2
20260510104818 15 221 0.0 8.0 0.00 0.00 0.00 99 1014.3
20260510104316 15 235 0.0 4.8 0.00 0.00 0.00 99 1014.1
20260510103812 15 318 0.0 4.8 0.00 0.00 0.00 99 1013.9
20260510103309 15 266 3.2 4.8 0.00 0.00 0.00 99 1013.7
20260510102804 15 94 0.0 3.2 0.00 0.00 0.00 99 1013.8
20260510102300 15 137 1.6 4.8 0.00 0.00 0.00 99 1013.6
20260510101757 15 177 0.0 4.8 0.00 0.00 0.00 99 1013.5
20260510101256 15 255 0.0 4.8 0.00 0.00 0.00 99 1013.5
20260510100751 15 253 0.0 4.8 0.00 0.00 0.00 99 1013.5
20260510100249 15 243 0.0 3.2 0.00 0.00 0.00 99 1013.2
20260510095744 15 287 3.2 3.2 0.00 0.00 0.00 99 1013.3
20260510095240 15 254 1.6 4.8 0.00 0.00 0.00 99 1013.4
20260510094739 15 233 0.0 4.8 0.00 0.00 0.00 99 1013.4
20260510094235 15 264 4.8 6.4 0.00 0.00 0.00 99 1013.4
20260510093730 15 264 3.2 4.8 0.00 0.00 0.00 99 1013.4
20260510093228 15 241 0.0 3.2 0.00 0.00 0.00 99 1013.4
20260510092724 15 243 0.0 6.4 0.00 0.00 0.00 99 1013.4
20260510092220 15 247 3.2 4.8 0.00 0.00 0.00 99 1013.2
20260510091716 15 196 3.2 6.4 0.00 0.00 0.00 99 1013.3
20260510091213 15 164 1.6 4.8 0.00 0.00 0.00 99 1013.1
20260510090709 15 194 3.2 3.2 0.00 0.00 0.00 99 1012.9
20260510090206 15 170 0.0 4.8 0.00 0.00 0.00 99 1013.2
20260510085701 15 234 0.0 3.2 0.00 0.00 0.00 99 1013.2
20260510085156 15 232 0.0 4.8 0.00 0.00 0.00 99 1012.9
20260510084653 15 234 0.0 3.2 0.00 0.00 0.00 99 1012.9
20260510084149 15 176 0.0 1.6 0.00 0.00 0.00 99 1012.9
20260510083646 15 227 0.0 1.6 0.00 0.00 0.00 99 1012.8
20260510083143 15 252 0.0 3.2 0.00 0.00 0.00 99 1012.7
20260510082639 16 255 1.6 4.8 0.00 0.00 0.00 99 1012.9
20260510082135 16 230 3.2 4.8 0.00 0.00 0.00 99 1012.8
20260510081630 16 248 3.2 4.8 0.00 0.00 0.00 99 1012.6
20260510081126 16 237 1.6 4.8 0.00 0.00 0.00 99 1012.5
20260510080625 16 224 1.6 4.8 0.00 0.00 0.00 99 1012.5
20260510080122 16 223 3.2 4.8 0.00 0.00 0.00 99 1012.3
20260510075620 16 262 3.2 4.8 0.00 0.00 0.00 99 1012.3
20260510075117 16 269 3.2 4.8 0.00 0.00 0.00 99 1012.5
20260510074613 15 207 0.0 1.6 0.00 0.00 0.00 99 1012.4
20260510074109 16 258 0.0 3.2 0.00 0.00 0.00 99 1012.4
20260510073559 16 190 1.6 4.8 0.00 0.00 0.00 99 1012.3
20260510073057 16 221 0.0 4.8 0.00 0.00 0.00 99 1012.2
20260510072553 16 244 1.6 4.8 0.00 0.00 0.00 99 1012.3
20260510072049 16 242 3.2 9.7 0.00 0.00 0.00 99 1012.6
20260510071545 15 227 4.8 6.4 0.00 0.00 0.00 99 1012.4
20260510071044 15 235 3.2 4.8 0.00 0.00 0.00 99 1012.2
20260510070540 15 258 0.0 4.8 0.00 0.00 0.00 99 1012.2
20260510070037 15 226 4.8 6.4 0.00 0.00 0.00 99 1012.2
20260510065533 15 232 4.8 6.4 0.00 0.00 0.00 99 1011.9
20260510065029 15 243 0.0 4.8 0.00 0.00 0.00 99 1012.0
20260510064526 15 95 0.0 3.2 0.00 0.00 0.00 99 1012.2
20260510064023 15 182 0.0 3.2 0.00 0.00 0.00 99 1011.9
20260510063520 15 170 0.0 3.2 0.00 0.00 0.00 99 1012.0
20260510063017 15 142 0.0 4.8 0.00 0.00 0.00 99 1012.2
20260510062512 16 156 3.2 4.8 0.00 0.00 0.00 99 1011.9
20260510062008 16 161 3.2 6.4 0.00 0.00 0.00 99 1012.2
20260510061505 16 166 3.2 6.4 0.00 0.00 0.00 99 1012.4
20260510061001 16 143 1.6 4.8 0.00 0.00 0.00 99 1012.3
20260510060458 16 153 4.8 6.4 0.00 0.00 0.00 99 1012.5
20260510055954 16 150 4.8 6.4 0.00 0.00 0.00 99 1012.2
20260510055450 16 136 3.2 6.4 0.00 0.00 0.00 99 1012.3
20260510054948 16 123 1.6 4.8 0.00 0.00 0.00 99 1012.4
20260510054443 16 107 0.0 4.8 0.00 0.00 0.00 98 1012.3
20260510053938 16 184 0.0 4.8 0.00 0.00 0.00 98 1012.6
20260510053434 16 182 0.0 3.2 0.00 0.00 0.00 98 1012.7
20260510052931 16 155 0.0 4.8 0.00 0.00 0.00 98 1012.8
20260510052426 16 146 4.8 4.8 0.00 0.00 0.00 98 1012.8
20260510051923 16 135 3.2 4.8 0.00 0.00 0.00 98 1012.8
20260510051420 16 158 4.8 6.4 0.00 0.00 0.00 98 1012.8
20260510050916 16 166 0.0 4.8 0.00 0.00 0.00 98 1012.7
20260510050413 16 186 0.0 3.2 0.00 0.00 0.00 98 1012.9
20260510045910 16 170 0.0 3.2 0.00 0.00 0.00 97 1012.9
20260510045407 16 117 0.0 4.8 0.00 0.00 0.00 97 1012.6
20260510044904 16 183 0.0 4.8 0.00 0.00 0.00 97 1012.8
20260510044401 16 161 1.6 3.2 0.00 0.00 0.00 97 1012.7
20260510043857 16 84 0.0 3.2 0.00 0.00 0.00 97 1012.9
20260510043353 16 169 0.0 3.2 0.00 0.00 0.00 96 1013.0
20260510042852 16 165 0.0 3.2 0.00 0.00 0.00 96 1012.8
20260510042347 16 147 1.6 8.0 0.00 0.00 0.00 96 1013.0
20260510041843 16 186 1.6 3.2 0.00 0.00 0.00 96 1012.7
20260510041340 16 90 0.0 3.2 0.00 0.00 0.00 96 1012.8
20260510040838 16 126 3.2 4.8 0.00 0.00 0.00 96 1012.9
20260510040334 16 73 0.0 3.2 0.00 0.00 0.00 95 1012.7
20260510035830 16 130 0.0 1.6 0.00 0.00 0.00 95 1012.7
20260510035326 16 175 0.0 1.6 0.00 0.00 0.00 95 1012.4
20260510034822 17 63 0.0 3.2 0.00 0.00 0.00 95 1012.3
20260510034320 17 78 0.0 3.2 0.00 0.00 0.00 94 1012.8
20260510033816 17 91 0.0 4.8 0.00 0.00 0.00 93 1012.5
20260510033313 17 157 0.0 4.8 0.00 0.00 0.00 93 1012.5
20260510032810 17 198 0.0 3.2 0.00 0.00 0.00 93 1012.2
20260510032306 17 6 0.0 3.2 0.00 0.00 0.00 92 1012.3
20260510031802 17 78 0.0 1.6 0.00 0.00 0.00 92 1012.2
20260510031257 17 167 0.0 3.2 0.00 0.00 0.00 90 1012.3
20260510030751 18 123 0.0 4.8 0.00 0.00 0.00 90 1012.4
20260510030249 18 152 0.0 4.8 0.00 0.00 0.00 89 1012.3
20260510025746 18 216 0.0 3.2 0.00 0.00 0.00 89 1012.0
20260510025244 18 261 0.0 4.8 0.00 0.00 0.00 88 1012.1
20260510024739 18 190 0.0 8.0 0.00 0.00 0.00 88 1012.1
20260510024236 18 41 0.0 4.8 0.00 0.00 0.00 88 1012.5
20260510023732 18 92 0.0 4.8 0.00 0.00 0.00 86 1012.1
20260510023224 19 213 1.6 8.0 0.00 0.00 0.00 85 1012.2
20260510022719 19 236 0.0 8.0 0.00 0.00 0.00 85 1012.1
20260510022214 19 247 3.2 12.9 0.00 0.00 0.00 84 1011.9
20260510021709 20 276 3.2 6.4 0.00 0.00 0.00 84 1012.0
20260510021207 20 281 3.2 4.8 0.00 0.00 0.00 83 1012.1
20260510020702 20 289 4.8 8.0 0.00 0.00 0.00 83 1011.8
20260510020202 20 260 3.2 6.4 0.00 0.00 0.00 83 1011.8
20260510015658 20 257 4.8 9.7 0.00 0.00 0.00 82 1011.7
20260510015155 20 265 4.8 11.3 0.00 0.00 0.00 83 1011.7
20260510014650 19 216 0.0 3.2 0.00 0.00 0.00 83 1011.7
20260510014148 20 258 0.0 4.8 0.00 0.00 0.00 82 1011.5
20260510013643 20 272 1.6 8.0 0.00 0.00 0.00 82 1011.5
20260510013139 20 195 0.0 8.0 0.00 0.00 0.00 81 1011.4
20260510012638 20 220 6.4 6.4 0.00 0.00 0.00 82 1011.3
20260510012134 20 54 1.6 8.0 0.00 0.00 0.00 81 1011.2
20260510011629 20 209 0.0 6.4 0.00 0.00 0.00 81 1011.0
20260510011125 20 265 0.0 4.8 0.00 0.00 0.00 80 1010.9
20260510010621 20 245 1.6 8.0 0.00 0.00 0.00 80 1011.1
20260510010119 20 274 0.0 4.8 0.00 0.00 0.00 79 1011.4
20260510005614 20 187 0.0 4.8 0.00 0.00 0.00 79 1011.3
20260510005112 20 167 0.0 3.2 0.00 0.00 0.00 78 1010.9
20260510004609 20 252 0.0 4.8 0.00 0.00 0.00 76 1011.2
20260510004107 20 241 3.2 4.8 0.00 0.00 0.00 75 1011.0
20260510003604 20 277 0.0 8.0 0.00 0.00 0.00 75 1010.9
20260510003100 20 345 0.0 6.4 0.00 0.00 0.00 74 1011.2
20260510002554 20 258 3.2 4.8 0.00 0.00 0.00 74 1011.2
20260510002051 20 206 0.0 3.2 0.00 0.00 0.00 75 1010.7
20260510001549 20 240 0.0 8.0 0.00 0.00 0.00 75 1010.8
20260510001048 21 165 0.0 1.6 0.00 0.00 0.00 74 1010.5
20260510000542 21 225 0.0 6.4 0.00 0.00 0.00 72 1010.7
20260510000039 21 252 4.8 8.0 0.00 0.00 0.00 72 1010.5
20260509235536 21 227 3.2 11.3 0.00 0.00 0.00 72 1010.4
20260509235033 21 280 3.2 4.8 0.00 0.00 0.00 71 1010.3
20260509234529 21 277 4.8 8.0 0.00 0.00 0.00 70 1010.4
20260509234027 21 257 3.2 8.0 0.00 0.00 0.00 70 1009.9
20260509233524 22 259 6.4 8.0 0.00 0.00 0.00 69 1010.1
20260509233021 22 268 3.2 4.8 0.00 0.00 0.00 69 1010.0
20260509232518 22 270 3.2 9.7 0.00 0.00 0.00 68 1010.1
20260509232015 22 259 0.0 8.0 0.00 0.00 0.00 68 1010.1
20260509231511 22 241 6.4 9.7 0.00 0.00 0.00 68 1010.0
20260509231009 22 281 3.2 9.7 0.00 0.00 0.00 67 1010.0
20260509230505 22 274 0.0 4.8 0.00 0.00 0.00 67 1010.0
20260509230002 22 274 3.2 8.0 0.00 0.00 0.00 67 1010.1
20260509225458 22 251 4.8 9.7 0.00 0.00 0.00 66 1010.0
20260509224954 22 257 6.4 14.5 0.00 0.00 0.00 66 1010.1
20260509224449 22 234 4.8 14.5 0.00 0.00 0.00 66 1010.0
20260509223946 22 215 4.8 9.7 0.00 0.00 0.00 66 1010.1
20260509223443 22 269 4.8 8.0 0.00 0.00 0.00 65 1010.2
20260509222941 22 237 3.2 6.4 0.00 0.00 0.00 66 1010.2
20260509222436 22 240 6.4 12.9 0.00 0.00 0.00 65 1010.0
20260509221932 22 276 9.7 12.9 0.00 0.00 0.00 65 1010.2
20260509221429 22 266 3.2 6.4 0.00 0.00 0.00 65 1010.1
20260509220924 22 276 0.0 4.8 0.00 0.00 0.00 64 1010.1
20260509220420 23 310 0.0 14.5 0.00 0.00 0.00 63 1009.9
20260509215917 23 277 4.8 17.7 0.00 0.00 0.00 60 1010.0
20260509215412 24 306 3.2 6.4 0.00 0.00 0.00 60 1010.0
20260509214910 24 221 4.8 8.0 0.00 0.00 0.00 59 1009.9
20260509214407 23 216 4.8 12.9 0.00 0.00 0.00 61 1009.6
20260509213904 24 230 6.4 9.7 0.00 0.00 0.00 61 1009.3
20260509213359 23 147 3.2 9.7 0.00 0.00 0.00 60 1009.6
20260509212857 23 226 6.4 17.7 0.00 0.00 0.00 62 1009.6
20260509212354 23 252 3.2 8.0 0.00 0.00 0.00 62 1009.6
20260509211850 23 234 4.8 22.5 0.00 0.00 0.00 61 1009.7
20260509211341 24 214 4.8 12.9 0.00 0.00 0.00 60 1009.8
20260509210837 23 251 4.8 11.3 0.00 0.00 0.00 62 1009.7
20260509210335 23 222 6.4 9.7 0.00 0.00 0.00 61 1009.7
20260509205834 23 253 4.8 19.3 0.00 0.00 0.00 61 1009.7
20260509205329 23 209 4.8 14.5 0.00 0.00 0.00 60 1009.7
20260509204826 25 268 4.8 14.5 0.00 0.00 0.00 58 1009.8
20260509204322 24 290 3.2 17.7 0.00 0.00 0.00 58 1009.9
20260509203819 25 216 11.3 20.9 0.00 0.00 0.00 58 1009.5
20260509203316 24 227 1.6 12.9 0.00 0.00 0.00 59 1009.6
20260509202812 24 227 8.0 14.5 0.00 0.00 0.00 58 1009.9
20260509202309 25 16 8.0 12.9 0.00 0.00 0.00 56 1009.9
20260509201807 24 303 6.4 17.7 0.00 0.00 0.00 58 1009.9
20260509201305 23 241 14.5 25.7 0.00 0.00 0.00 59 1009.9
20260509200801 24 227 4.8 12.9 0.00 0.00 0.00 58 1009.9
20260509200256 24 255 6.4 16.1 0.00 0.00 0.00 60 1010.0
20260509195752 24 285 8.0 14.5 0.00 0.00 0.00 58 1009.9
20260509195247 24 221 9.7 24.1 0.00 0.00 0.00 58 1009.9
20260509194742 23 239 12.9 19.3 0.00 0.00 0.00 59 1010.0
20260509194239 23 274 4.8 8.0 0.00 0.00 0.00 61 1010.0
20260509193736 23 258 6.4 11.3 0.00 0.00 0.00 61 1010.1
20260509193235 23 266 14.5 14.5 0.00 0.00 0.00 60 1010.0
20260509192732 23 293 4.8 14.5 0.00 0.00 0.00 61 1010.1
20260509192227 23 245 11.3 14.5 0.00 0.00 0.00 59 1010.0
20260509191723 24 248 8.0 19.3 0.00 0.00 0.00 58 1010.2
20260509191219 24 266 8.0 11.3 0.00 0.00 0.00 58 1010.4
20260509190715 24 259 6.4 12.9 0.00 0.00 0.00 57 1010.4
20260509190213 25 288 4.8 20.9 0.00 0.00 0.00 58 1010.5
20260509185710 24 247 4.8 17.7 0.00 0.00 0.00 60 1010.8
20260509185206 23 239 3.2 12.9 0.00 0.00 0.00 63 1010.9
20260509184704 23 33 0.0 11.3 0.00 0.00 0.00 61 1010.9
20260509184201 22 265 14.5 17.7 0.00 0.00 0.00 62 1011.0
20260509183657 23 280 11.3 14.5 0.00 0.00 0.00 60 1010.9
20260509183152 23 283 11.3 19.3 0.00 0.00 0.00 60 1011.0
20260509182648 23 174 11.3 32.2 0.00 0.00 0.00 59 1010.9
20260509182146 23 172 4.8 12.9 0.00 0.00 0.00 62 1010.8
20260509181643 22 198 4.8 9.7 0.00 0.00 0.00 62 1011.1
20260509181141 23 238 11.3 17.7 0.00 0.00 0.00 61 1011.1
20260509180637 22 168 3.2 12.9 0.00 0.00 0.00 64 1011.0
20260509180134 22 237 8.0 29.0 0.00 0.00 0.00 62 1011.1
20260509175629 22 229 9.7 30.6 0.00 0.00 0.00 61 1011.2
20260509175127 22 193 8.0 33.8 0.00 0.00 0.00 63 1011.4
20260509174622 23 275 9.7 27.4 0.00 0.00 0.00 66 1011.3
20260509174118 22 169 3.2 11.3 0.00 0.00 0.00 64 1011.5
20260509173614 23 234 8.0 24.1 0.00 0.00 0.00 64 1011.4
20260509173109 22 266 0.0 9.7 0.00 0.00 0.00 66 1011.6
20260509172607 22 247 4.8 14.5 0.00 0.00 0.00 64 1011.5
20260509172103 22 224 8.0 25.7 0.00 0.00 0.00 65 1011.5
20260509171559 22 217 8.0 9.7 0.00 0.00 0.00 64 1011.6
20260509171055 22 221 6.4 11.3 0.00 0.00 0.00 66 1011.9
20260509170551 22 247 4.8 16.1 0.00 0.00 0.00 64 1011.9
20260509170047 22 246 3.2 14.5 0.00 0.00 0.00 66 1012.0
20260509165546 22 298 4.8 9.7 0.00 0.00 0.00 65 1012.0
20260509165041 22 293 6.4 14.5 0.00 0.00 0.00 65 1012.0
20260509164538 22 233 6.4 20.9 0.00 0.00 0.00 64 1011.9
20260509164033 22 325 6.4 16.1 0.00 0.00 0.00 63 1012.1
20260509163532 22 203 1.6 17.7 0.00 0.00 0.00 64 1011.9
20260509163031 22 270 11.3 20.9 0.00 0.00 0.00 62 1012.0